Fargo, ND

8:01 AM CST on December 12, 2019 (GMT -0600)
Hector International

Weather History for KFAR - October, 2019

Change the Weather History Date:

Friday, October 11, 2019

  Actual Average Record
Temperature  
Mean Temperature 32 °F 48 °F  
Max Temperature 33 °F 59 °F 97 °F (2015)
Min Temperature 30 °F 37 °F 20 °F (1917)
Degree Days  
Heating Degree Days 34 17  
Month to date heating degree days 204 166  
Since 1 July heating degree days 419 436  
Cooling Degree Days 0 0  
Month to date cooling degree days 0 0  
Year to date cooling degree days 527 548  
Moisture  
Dew Point 31 °F    
Average Humidity 96    
Maximum Humidity 100    
Minimum Humidity 92    
Precipitation  
Precipitation 0.65 in 0.08 in 1.05 in (1924)
Month to date precipitation 3.10 0.88  
Year to date precipitation 27.80 19.48  
Snow  
Snow 4.10 in 0.00 in 1.60 in (2006)
Month to date snowfall 4.1 0.1  
Since 1 July snowfall 4.1 0.1  
Since 1 September snowfall 4.1 0.1  
Snow Depth T in    
Sea Level Pressure  
Sea Level Pressure 29.60 in    
Wind  
Wind Speed 18 mph ()    
Max Wind Speed 36 mph    
Max Gust Speed 52 mph    
Visibility 1.6 miles    
Events Fog , Rain , Snow    
T = Trace of Precipitation, MM = Missing Value Source: Averaged Metar Reports

Daily Weather History Graph

Daily Weather History Graph

Search for Another Location

Airport or City:

Astronomy

Oct. 11, 2019 Rise Set
Actual Time 7:39 AM CDT 6:47 PM CDT
Civil Twilight 7:08 AM CDT 7:18 PM CDT
Nautical Twilight 6:33 AM CDT 7:53 PM CDT
Astronomical Twilight 5:58 AM CDT 8:28 PM CDT
Moon 6:28 PM CDT (10/11) 5:07 AM CDT (10/11)
Length of Visible Light 12h 09m
Length of Day
11h 08m
Waxing Gibbous, 96% of the Moon is Illuminated
Oct 11
Waxing Gibbous
Oct 13
Full
Oct 21
Last Quarter
Oct 27
New
Nov 4
First Quarter

Hourly Weather History & Observations

Time (CDT) Temp. Windchill Dew Point Humidity Pressure Visibility Wind Dir Wind Speed Gust Speed Precip Events Conditions
12:11 AM 33.1 °F 22.6 °F 32.0 °F 96% 29.79 in 10.0 mi NW 16.1 mph 26.5 mph 0.01 in Rain Light Rain
12:53 AM 33.1 °F 22.6 °F 32.0 °F 96% 29.80 in 5.0 mi NW 16.1 mph - 0.01 in Rain Light Rain
1:53 AM 33.1 °F 23.4 °F 32.0 °F 96% 29.78 in 5.0 mi NW 13.8 mph - 0.02 in Rain Light Rain
2:53 AM 32.0 °F 21.2 °F 32.0 °F 100% 29.74 in 3.0 mi NW 16.1 mph 25.3 mph 0.01 in   Overcast
3:08 AM 32.0 °F 21.6 °F 32.0 °F 100% 29.71 in 3.0 mi NW 15.0 mph 23.0 mph 0.00 in   Overcast
3:15 AM 32.0 °F 21.6 °F 32.0 °F 100% 29.70 in 3.0 mi NW 15.0 mph - 0.00 in Rain Light Freezing Rain
3:26 AM 32.0 °F 21.2 °F 32.0 °F 100% 29.69 in 3.0 mi NW 16.1 mph - 0.01 in Rain Light Freezing Rain
3:53 AM 32.0 °F 22.1 °F 30.9 °F 96% 29.73 in 3.0 mi NW 13.8 mph - 0.01 in Rain Light Freezing Rain
4:07 AM 32.0 °F 22.1 °F 32.0 °F 100% 29.69 in 2.5 mi WNW 13.8 mph - 0.01 in Snow Light Snow
4:30 AM 32.0 °F 22.1 °F 30.9 °F 96% 29.67 in 1.5 mi NW 13.8 mph 23.0 mph 0.02 in Snow Light Snow
4:53 AM 32.0 °F 21.6 °F 30.9 °F 96% 29.70 in 1.0 mi WNW 15.0 mph - 0.05 in Snow Light Snow
5:31 AM 32.0 °F 22.1 °F 30.9 °F 96% 29.66 in 1.5 mi WNW 13.8 mph - 0.01 in Snow Light Snow
5:53 AM 32.0 °F 21.6 °F 30.9 °F 96% 29.69 in 1.2 mi WNW 15.0 mph - 0.02 in Snow Light Snow
6:53 AM 32.0 °F 21.2 °F 30.9 °F 96% 29.67 in 1.2 mi WNW 16.1 mph - 0.01 in Snow Light Snow
7:16 AM 32.0 °F 21.2 °F 30.9 °F 96% 29.63 in 1.8 mi WNW 16.1 mph 27.6 mph 0.01 in Snow Light Snow
7:23 AM 32.0 °F 21.6 °F 30.2 °F 93% 29.63 in 2.0 mi WNW 15.0 mph - N/A Snow Light Snow
7:50 AM 32.0 °F 21.2 °F 30.2 °F 93% 29.62 in 2.5 mi WNW 16.1 mph 25.3 mph 0.01 in Snow Light Snow
7:53 AM 32.0 °F 22.1 °F 30.9 °F 96% 29.66 in 3.0 mi WNW 13.8 mph - 0.01 in Snow Light Snow
8:05 AM 32.0 °F 20.8 °F 30.9 °F 96% 29.62 in 2.0 mi WNW 17.3 mph 26.5 mph 0.00 in Snow Light Snow
8:14 AM 32.0 °F 20.5 °F 30.9 °F 96% 29.61 in 2.0 mi WNW 18.4 mph 25.3 mph 0.00 in Snow Light Snow
8:29 AM 32.0 °F 21.2 °F 30.9 °F 96% 29.61 in 1.5 mi WNW 16.1 mph - 0.00 in Snow Light Snow
8:41 AM 32.0 °F 21.2 °F 30.9 °F 96% 29.61 in 1.0 mi WNW 16.1 mph 25.3 mph 0.00 in Snow Light Snow
8:53 AM 32.0 °F 21.6 °F 30.9 °F 96% 29.64 in 1.0 mi WNW 15.0 mph - 0.01 in Snow Light Snow
9:12 AM 32.0 °F 21.6 °F 30.9 °F 96% 29.60 in 0.8 mi WNW 15.0 mph - 0.00 in Snow Light Snow
9:53 AM 32.0 °F 21.6 °F 30.9 °F 96% 29.62 in 0.5 mi WNW 15.0 mph 28.8 mph 0.01 in Fog , Snow Snow
10:53 AM 32.0 °F 20.8 °F 30.9 °F 96% 29.60 in 0.8 mi WNW 17.3 mph 27.6 mph 0.03 in Snow Light Snow
11:53 AM 32.0 °F 21.2 °F 30.9 °F 96% 29.60 in 1.0 mi WNW 16.1 mph - 0.02 in Snow Light Snow
12:15 PM 33.1 °F 22.2 °F 32.0 °F 96% 29.56 in 0.8 mi WNW 17.3 mph - 0.00 in Snow Light Snow
12:42 PM 33.1 °F 21.9 °F 32.0 °F 96% 29.55 in 1.0 mi West 18.4 mph - 0.01 in Snow Light Snow
12:53 PM 33.1 °F 21.9 °F 32.0 °F 96% 29.59 in 1.0 mi West 18.4 mph - 0.02 in Snow Light Snow
1:09 PM 32.0 °F 20.8 °F 30.9 °F 96% 29.55 in 0.8 mi West 17.3 mph 26.5 mph 0.00 in Snow Light Snow
1:33 PM 32.0 °F 20.8 °F 32.0 °F 100% 29.54 in 0.5 mi West 17.3 mph 28.8 mph 0.02 in Fog , Snow Snow
1:53 PM 32.0 °F 18.6 °F 30.9 °F 96% 29.57 in 0.5 mi West 25.3 mph 39.1 mph 0.02 in Fog , Snow Snow
2:23 PM 32.0 °F 18.6 °F 30.9 °F 96% 29.54 in 0.8 mi West 25.3 mph 39.1 mph 0.02 in Snow Light Snow
2:53 PM 32.0 °F 18.4 °F 30.9 °F 96% 29.57 in 0.8 mi West 26.5 mph 36.8 mph 0.02 in Snow Light Snow
3:53 PM 32.0 °F 17.9 °F 30.9 °F 96% 29.57 in 0.5 mi West 28.8 mph 35.7 mph 0.01 in Fog , Snow Snow
4:09 PM 32.0 °F 18.1 °F 30.0 °F 92% 29.54 in 1.0 mi West 27.6 mph 39.1 mph 0.00 in Snow Light Snow
4:24 PM 32.0 °F 18.1 °F 30.0 °F 92% 29.53 in 0.8 mi West 27.6 mph 40.3 mph 0.00 in Snow Light Snow
4:53 PM 32.0 °F 18.6 °F 30.0 °F 92% 29.57 in 0.5 mi West 25.3 mph 40.3 mph 0.00 in Fog , Snow Snow
4:55 PM 32.0 °F 17.6 °F 30.2 °F 93% 29.54 in 0.2 mi West 29.9 mph 40.3 mph N/A Fog , Snow Heavy Snow
5:53 PM 30.9 °F 15.9 °F 30.0 °F 96% 29.58 in 0.2 mi West 31.1 mph 44.9 mph 0.02 in Fog , Snow Heavy Snow
6:47 PM 30.2 °F 14.5 °F 30.2 °F 100% 29.53 in 0.5 mi West 33.4 mph 50.6 mph 0.02 in Fog , Snow Snow
6:53 PM 30.9 °F 15.3 °F 30.0 °F 96% 29.57 in 0.8 mi West 34.5 mph 50.6 mph 0.02 in Snow Light Snow
7:02 PM 30.9 °F 15.7 °F 30.0 °F 96% 29.53 in 1.0 mi West 32.2 mph 44.9 mph 0.01 in Snow Light Snow
7:28 PM 30.9 °F 16.4 °F 28.9 °F 92% 29.52 in 1.2 mi West 28.8 mph 46.0 mph 0.01 in Snow Light Snow
7:53 PM 30.9 °F 15.5 °F 30.0 °F 96% 29.55 in 1.2 mi West 33.4 mph 42.6 mph 0.01 in Snow Light Snow
8:02 PM 32.0 °F 17.6 °F 30.0 °F 92% 29.52 in 1.5 mi West 29.9 mph 42.6 mph 0.00 in Snow Light Snow
8:17 PM 32.0 °F 18.1 °F 30.0 °F 92% 29.51 in 1.0 mi West 27.6 mph 43.7 mph 0.00 in Snow Light Snow
8:53 PM 32.0 °F 17.6 °F 30.0 °F 92% 29.54 in 1.2 mi West 29.9 mph 46.0 mph 0.00 in Snow Light Snow
9:13 PM 32.0 °F 17.9 °F 30.0 °F 92% 29.49 in 0.8 mi West 28.8 mph 42.6 mph 0.00 in Snow Light Snow
9:28 PM 32.0 °F 18.6 °F 30.0 °F 92% 29.49 in 1.0 mi West 25.3 mph 39.1 mph 0.00 in Snow Light Snow
9:53 PM 32.0 °F 17.4 °F 30.0 °F 92% 29.52 in 0.8 mi West 31.1 mph 42.6 mph 0.01 in Snow Light Snow
10:53 PM 32.0 °F 17.9 °F 30.9 °F 96% 29.50 in 1.2 mi West 28.8 mph 38.0 mph 0.02 in Snow Light Snow
11:08 PM 32.0 °F 17.6 °F 30.0 °F 92% 29.45 in 0.8 mi West 29.9 mph 39.1 mph 0.00 in Snow Light Snow
11:18 PM 32.0 °F 17.6 °F 30.9 °F 96% 29.45 in 1.0 mi West 29.9 mph 38.0 mph 0.00 in Snow Light Snow
11:53 PM 32.0 °F 18.4 °F 30.9 °F 96% 29.47 in 0.8 mi West 26.5 mph 39.1 mph 0.00 in Snow Light Snow